GEFSSGP_850_meantemp_000.txt.gz
Temperature
23 21 20 22 28 33 32 33 32 34 33 31 30 30 30 30 29 27 22 21 21 21 20 21 20 20 19 19 19 19 19 19 19 19 19 20 20 20 20 20 20 20 20 20 20 20 20 19 20
22 21 22 26 32 33 32 32 33 32 31 30 30 29 30 28 25 22 21 21 21 21 20 20 21 20 20 19 19 19 19 20 20 20 20 20 20 20 20 20 20 20 20 20 20 20 20 20 20
22 21 25 32 33 33 32 32 32 31 30 30 30 30 29 27 24 23 22 21 21 20 19 19 21 21 20 20 20 20 20 20 20 20 20 20 20 20 20 20 20 20 20 20 20 19 19 19 19
22 24 28 32 34 33 33 32 31 32 31 30 30 29 27 24 23 22 21 21 21 20 19 21 21 21 21 20 20 20 20 20 20 20 20 20 20 20 20 20 20 20 19 19 19 19 19 19 19
23 28 33 33 35 33 33 31 31 33 32 31 30 30 27 22 22 22 21 21 21 20 20 21 21 21 21 21 21 20 20 20 20 20 20 20 20 19 19 19 20 19 19 19 19 19 18 18 18
28 31 33 34 33 33 33 32 32 32 31 30 31 30 26 22 22 21 21 21 21 21 20 19 21 21 21 21 20 20 20 20 20 20 20 19 19 19 19 19 19 19 19 19 19 19 19 19 18
29 32 33 33 33 33 33 32 32 33 32 30 30 30 26 23 22 21 21 21 21 21 20 19 20 21 21 20 20 20 20 20 20 20 20 19 19 19 19 19 19 19 19 19 19 19 19 19 19
29 32 33 34 33 33 32 32 31 31 32 29 29 31 28 23 21 21 20 20 20 20 20 19 19 19 20 20 20 20 20 20 20 20 19 19 19 19 19 19 19 18 19 19 19 19 19 19 19
28 32 33 35 33 33 33 33 31 30 30 30 28 28 26 23 22 21 21 20 20 19 19 19 19 19 18 18 20 20 20 19 19 19 19 19 18 18 18 18 18 18 18 18 18 18 18 18 18
30 32 34 33 33 33 33 33 32 31 31 31 27 25 23 22 22 22 22 21 20 20 20 20 20 19 19 18 18 18 17 17 17 17 17 18 18 18 18 18 18 18 18 18 18 18 18 18 18
30 32 32 31 31 31 32 33 33 33 33 32 30 25 23 23 23 23 23 22 21 21 21 20 21 21 20 19 18 18 18 18 18 18 17 18 18 18 18 17 18 18 18 18 18 18 18 17 17
28 31 30 30 30 30 31 32 33 33 32 29 29 25 24 24 24 24 23 22 22 21 22 22 21 21 20 19 19 19 18 18 18 18 18 18 17 17 17 17 18 18 18 18 17 17 17 17 17
29 30 30 30 30 31 31 31 32 33 32 28 27 25 25 25 24 23 23 22 22 22 22 21 21 21 20 19 18 18 18 18 18 18 18 17 17 17 17 17 17 18 18 18 18 16 16 18 18
29 29 30 30 31 31 31 32 32 33 30 28 27 26 26 25 25 23 22 22 22 22 21 21 21 20 20 19 19 19 19 18 18 18 17 17 17 17 17 17 17 17 18 18 17 16 16 18 18
28 29 31 32 31 30 31 32 32 32 29 28 27 26 25 25 24 24 23 23 22 22 21 21 20 20 20 20 19 19 19 18 18 18 17 17 17 17 17 17 16 17 17 17 16 16 17 19 19
28 30 31 32 31 30 30 31 33 29 29 28 26 25 24 24 24 24 23 23 22 22 21 21 21 20 19 19 18 19 18 18 18 17 17 17 17 17 17 17 17 17 17 17 17 16 18 18 18
29 30 31 31 31 30 30 31 29 27 29 28 26 25 24 24 23 23 22 21 21 21 21 20 20 20 19 19 19 18 18 18 17 17 17 16 17 16 16 16 16 16 16 16 16 16 16 17 17
30 30 30 30 30 31 30 30 28 27 28 27 26 25 24 24 23 22 22 21 21 21 21 20 20 20 20 20 19 19 18 17 17 17 17 16 17 16 16 16 16 15 15 16 16 16 16 16 16
29 29 29 29 30 30 29 29 28 26 26 26 25 25 24 24 22 22 21 22 21 21 21 20 20 21 20 19 19 19 19 18 18 17 17 17 16 15 15 15 15 15 15 15 15 15 16 16 16
29 29 29 30 29 30 29 29 28 26 26 26 25 25 24 23 22 22 22 22 22 21 21 21 20 21 20 19 19 19 18 18 18 17 16 16 16 15 15 15 14 14 14 14 14 14 15 16 17
29 28 28 28 29 29 29 28 29 28 26 25 25 25 24 24 23 22 23 23 22 22 21 21 21 21 20 20 19 18 18 18 18 17 17 16 15 15 15 15 14 15 14 14 14 14 14 15 16
29 28 28 27 27 28 28 26 29 29 28 27 25 24 24 24 23 23 23 23 22 22 21 21 22 21 21 20 19 19 19 19 18 17 17 16 15 15 15 14 13 14 14 13 13 13 13 14 15
28 28 28 27 27 27 28 27 29 28 27 28 27 25 24 24 22 23 22 23 22 22 21 21 21 21 21 21 20 19 19 19 18 17 16 15 15 14 14 14 13 13 13 13 13 13 13 13 14
28 27 27 27 27 27 26 27 28 27 26 27 27 24 23 23 22 21 22 22 21 20 20 20 20 21 21 21 20 20 19 19 18 17 16 16 15 15 14 13 13 12 12 12 12 13 13 13 14
28 27 27 28 28 27 26 26 26 23 22 22 21 19 19 19 18 17 18 18 18 18 19 19 19 20 20 20 20 19 19 19 18 16 16 16 15 15 14 14 13 13 12 12 12 12 13 13 13
27 26 25 26 26 26 26 26 23 21 20 19 18 18 17 17 17 16 15 15 15 15 15 16 16 17 18 19 19 19 19 18 17 16 17 16 16 15 15 15 14 13 12 12 13 12 13 13 13
25 28 27 27 25 25 27 27 23 21 19 18 17 16 16 15 15 15 14 14 14 14 13 13 13 14 15 16 16 17 18 18 17 16 17 16 16 16 15 15 14 14 13 12 12 13 13 13 12
26 27 26 27 25 25 26 26 25 19 18 18 16 16 15 15 15 14 14 13 12 12 12 12 12 12 13 13 14 14 15 15 15 15 15 15 15 15 15 15 14 12 12 12 13 13 13 12 12
27 27 26 25 26 24 24 25 19 17 17 17 16 15 15 14 14 14 13 13 12 12 12 11 11 12 13 13 12 13 13 13 14 14 14 14 14 15 14 14 13 12 12 12 13 12 13 13 13
26 27 26 25 25 24 24 22 17 17 16 16 16 15 14 14 13 13 13 12 12 11 11 10 10 10 11 12 13 13 12 12 13 13 13 14 13 13 13 13 13 13 12 12 12 12 12 13 13

GEFSSGP_850_meantemp_006.txt.gz
Temperature
24 24 23 24 27 29 30 34 34 34 34 34 33 34 32 30 29 27 27 25 23 23 24 23 22 21 21 21 20 20 20 20 20 20 20 20 20 20 20 20 20 19 19 19 19 19 19 20 20
25 24 26 27 29 28 31 33 34 34 34 34 34 34 32 29 28 27 26 24 23 24 24 23 22 21 21 20 20 20 20 20 20 20 20 20 20 20 20 20 20 20 20 20 20 20 20 20 20
25 25 28 30 29 26 30 34 34 35 34 34 34 32 31 29 28 26 25 24 23 23 24 24 23 22 21 21 20 20 20 20 20 20 20 20 20 20 20 20 20 20 20 20 20 20 20 20 20
25 28 30 32 30 28 30 34 35 34 34 34 33 31 29 28 28 26 25 24 23 22 24 24 23 22 21 21 21 20 20 20 20 20 20 20 20 20 20 20 20 20 20 19 19 19 19 19 20
27 30 32 33 32 31 32 35 35 34 34 35 33 30 28 27 26 25 25 25 23 22 23 24 23 22 22 21 21 21 20 20 20 20 20 20 20 20 20 20 20 20 20 19 19 19 19 19 19
29 33 33 33 33 33 34 35 35 35 35 34 32 30 27 27 26 26 26 25 24 23 22 23 23 22 22 21 21 21 21 20 20 20 20 20 20 20 20 20 20 20 19 19 19 19 19 19 19
30 32 33 34 34 33 35 35 33 32 31 31 32 30 28 27 26 26 26 26 25 23 22 24 23 23 23 22 22 21 21 21 20 20 20 20 20 20 20 20 20 20 19 19 19 19 19 19 18
31 33 33 34 35 35 36 35 34 31 29 30 31 30 28 27 26 26 26 26 25 24 22 23 23 23 22 22 22 21 21 20 20 20 20 20 20 20 20 20 20 19 19 19 19 19 19 19 19
31 32 32 34 35 35 35 34 32 33 30 31 32 31 28 26 26 26 26 26 25 24 22 22 21 22 22 22 21 21 21 20 20 20 20 20 20 20 19 19 19 19 19 19 19 19 19 19 19
32 32 33 36 36 35 35 35 34 34 34 32 30 29 27 26 26 26 26 25 24 24 23 22 22 21 21 20 20 20 20 20 20 20 20 20 19 19 18 18 19 19 19 19 19 19 19 19 19
33 33 34 35 35 35 35 35 35 36 35 33 30 28 27 27 26 26 26 25 24 23 23 23 23 21 21 21 20 20 19 19 19 19 19 19 19 19 19 18 18 18 19 19 19 18 18 18 18
33 34 34 34 34 34 34 34 35 36 35 32 29 27 26 27 27 27 26 26 25 24 23 23 22 22 21 21 21 20 20 19 19 19 19 19 18 19 19 18 18 18 18 18 18 18 18 18 18
33 33 33 33 34 34 34 34 35 35 35 33 29 27 26 27 28 28 28 27 25 24 23 23 22 21 21 21 21 20 20 20 19 19 19 19 19 19 19 18 18 18 18 18 18 18 18 18 18
32 33 33 33 33 33 34 35 35 35 35 33 31 29 28 28 28 28 28 27 25 24 23 23 22 21 21 21 20 20 20 20 19 19 19 19 19 18 18 18 18 19 18 18 18 19 19 18 18
32 32 32 33 33 34 34 34 35 35 35 34 32 31 30 29 29 28 27 26 25 24 23 22 21 21 21 20 20 20 20 20 20 19 19 19 18 18 18 18 18 18 18 18 18 18 18 18 18
32 31 30 32 34 34 34 32 34 35 35 34 33 32 31 30 29 28 27 26 25 24 23 22 21 21 20 20 20 20 20 19 19 19 19 18 18 18 17 17 17 17 17 17 17 17 18 18 18
31 30 31 33 35 35 33 32 34 34 34 34 33 33 31 30 29 28 27 26 25 23 23 22 21 21 20 20 20 20 20 20 19 19 19 18 17 17 17 17 17 17 17 17 17 17 17 17 17
30 32 32 33 34 34 32 33 34 32 32 32 32 32 30 29 28 27 26 24 24 23 22 21 21 20 20 20 20 20 20 20 20 19 19 18 18 17 17 17 17 16 16 16 16 16 16 16 16
31 31 31 32 33 32 31 32 33 32 31 31 32 31 30 28 27 25 24 23 23 23 22 21 21 20 20 20 20 20 20 20 20 20 19 18 18 17 17 16 16 16 16 16 16 16 16 16 16
31 30 31 32 32 32 31 31 32 32 31 30 30 29 27 26 24 23 22 23 23 22 21 21 21 20 21 21 21 21 21 20 20 20 19 19 17 17 17 16 16 15 15 15 15 15 15 15 15
30 29 29 30 31 31 31 30 31 32 32 29 27 24 22 20 19 20 22 23 22 22 21 21 21 21 21 21 21 21 20 20 20 19 19 19 18 17 17 16 16 15 15 15 15 15 15 14 14
29 30 30 30 29 29 30 29 30 31 28 25 21 18 17 17 16 17 19 21 21 21 21 21 20 21 21 21 21 20 20 20 20 20 20 19 18 18 17 17 16 16 16 16 15 14 15 14 14
30 31 30 30 29 28 28 28 29 29 25 22 19 17 15 16 16 17 18 19 19 20 20 20 19 19 20 20 20 20 20 20 20 20 19 19 19 18 17 17 16 16 16 15 15 15 15 15 14
31 30 30 30 28 24 21 23 26 26 25 23 20 18 16 16 16 16 16 17 18 18 18 18 17 17 18 18 18 18 18 19 19 19 19 19 18 18 18 17 16 16 16 15 15 15 14 14 14
30 29 27 27 23 21 20 22 24 24 24 23 21 19 18 17 17 16 16 16 16 16 16 15 15 16 16 16 16 17 17 17 17 17 18 18 18 18 18 17 17 17 16 16 16 14 14 14 14
29 29 27 26 26 26 23 23 23 23 23 22 21 20 19 18 17 16 16 15 15 15 14 14 14 14 15 15 15 15 15 15 15 16 16 17 17 17 17 17 17 17 16 16 15 14 14 13 14
29 28 29 28 27 27 27 23 22 22 23 22 21 20 19 18 17 17 16 16 15 15 14 14 14 14 14 14 15 14 15 15 15 15 15 15 15 16 16 16 15 15 16 15 15 15 14 14 14
30 29 28 27 26 26 27 24 21 20 22 22 21 20 18 18 18 17 16 16 15 15 14 14 14 14 14 14 14 14 14 14 15 15 15 15 15 15 15 14 14 14 15 15 14 14 14 14 14
29 29 28 28 27 25 25 22 22 21 21 21 20 18 17 17 17 16 16 15 15 15 14 14 13 13 13 13 13 14 13 14 14 14 14 15 15 14 14 14 14 14 14 14 14 14 14 14 14
29 29 28 26 25 26 25 21 19 19 18 17 17 17 16 16 15 15 15 14 14 13 13 13 12 12 12 12 12 12 12 12 12 12 13 13 13 14 14 13 13 13 13 14 14 14 14 14 14

GEFSSGP_850_meantemp_012.txt.gz
Temperature
24 23 22 21 21 21 23 25 28 29 29 28 28 28 27 26 25 23 23 23 23 23 22 21 21 21 21 21 21 21 21 21 21 21 21 21 21 21 20 20 20 20 20 20 20 20 20 20 21
24 23 22 21 22 23 24 25 26 27 28 28 28 27 26 25 24 23 22 22 23 23 22 22 22 21 21 21 21 21 21 21 21 21 21 21 21 21 21 21 21 21 20 20 20 20 21 21 21
25 24 22 21 23 23 24 26 26 27 28 29 28 28 27 24 23 23 24 23 23 24 23 22 22 21 21 21 21 21 21 21 21 21 21 21 21 21 21 21 21 21 21 21 21 21 21 21 21
25 24 23 22 23 24 25 26 27 27 28 29 28 27 26 25 25 25 24 23 24 24 23 22 22 22 21 21 21 21 21 21 21 21 21 21 21 21 21 21 20 20 20 20 20 20 20 20 20
25 24 22 23 24 25 26 27 27 27 28 28 27 25 25 26 26 25 24 24 24 24 23 23 22 22 22 21 21 21 21 21 21 21 20 20 20 20 20 20 20 20 20 20 20 20 20 20 20
25 23 23 23 26 27 27 27 27 27 27 27 26 25 24 25 25 25 25 24 25 25 24 23 22 22 22 21 21 21 21 20 20 20 20 20 20 20 20 20 19 19 19 19 19 19 19 19 20
26 23 24 25 26 27 27 27 27 27 27 27 27 25 24 24 25 25 25 24 25 25 24 24 23 22 22 21 21 21 21 20 20 20 20 20 20 20 20 20 19 19 19 19 19 19 19 19 19
28 23 24 25 27 28 28 27 27 28 27 28 28 25 25 24 24 24 24 24 24 24 24 24 23 23 22 22 21 21 21 21 20 20 20 20 20 20 20 19 19 19 19 19 19 19 19 19 19
28 22 23 25 27 28 28 27 28 28 28 28 28 28 28 26 24 24 24 24 24 24 24 24 24 23 23 22 22 21 21 21 20 20 20 20 20 20 19 19 19 18 18 19 18 19 19 19 19
26 22 24 26 28 29 29 28 28 27 27 26 27 28 28 26 25 24 24 24 24 24 24 24 24 24 23 22 22 22 21 21 21 20 20 20 20 19 19 19 18 18 18 18 18 18 18 18 18
26 24 25 27 29 30 30 30 29 28 26 27 28 28 27 26 25 25 25 25 25 25 24 23 23 23 23 23 22 22 21 20 20 20 20 19 19 19 18 18 18 18 18 18 18 18 18 18 18
26 26 28 29 30 30 30 31 30 29 29 30 30 29 28 26 26 26 25 25 24 24 23 23 23 23 22 22 22 21 21 20 20 20 19 19 19 18 18 18 18 18 18 18 18 18 18 18 18
26 26 29 29 30 30 30 30 30 30 31 30 29 28 27 27 26 26 25 24 24 23 22 22 22 22 22 22 21 21 20 20 20 19 19 18 18 18 18 18 18 18 18 18 18 18 18 18 18
26 26 27 28 29 30 29 29 29 30 30 28 27 27 27 26 26 25 24 24 23 22 22 21 21 21 21 21 21 20 20 20 19 19 19 18 18 18 18 18 18 18 17 17 17 17 17 17 17
27 25 25 27 28 29 28 27 28 31 29 27 26 25 25 24 23 22 21 21 21 21 20 20 20 20 20 20 20 20 19 19 19 19 18 18 18 18 18 18 18 18 17 17 17 17 17 17 17
25 24 24 26 27 28 28 26 28 30 28 26 25 23 22 21 20 20 19 19 19 19 19 18 18 19 19 19 19 19 19 19 19 19 18 18 18 18 18 18 17 17 17 17 17 17 17 16 16
23 23 24 26 27 27 27 25 27 28 26 23 22 21 20 19 19 19 19 19 18 18 18 17 17 17 18 18 19 19 19 19 19 18 18 18 18 18 18 17 17 17 17 17 17 16 16 16 16
23 24 25 26 27 27 26 25 24 24 22 19 18 18 17 18 18 19 19 19 19 18 18 17 16 16 17 17 18 18 19 19 19 19 19 19 19 18 18 17 17 17 16 16 16 16 16 16 15
26 26 26 27 27 26 24 21 19 19 18 17 16 15 15 16 17 18 18 18 18 18 18 17 16 16 16 17 17 18 18 19 19 19 19 19 19 18 18 17 17 16 16 16 16 16 16 16 15
26 26 25 26 27 26 22 19 18 18 17 16 15 14 14 15 16 17 17 17 17 17 17 17 17 17 17 17 18 18 19 19 19 19 19 19 19 18 18 18 17 17 17 17 16 16 16 16 15
26 26 26 26 25 24 23 19 18 18 17 16 15 14 14 14 15 15 16 16 17 16 16 16 16 16 16 17 18 18 19 19 19 19 19 19 19 19 18 18 18 18 18 17 17 17 16 16 16
25 26 27 26 24 21 22 20 18 17 17 17 15 14 14 14 15 15 15 15 15 15 15 15 16 16 17 17 18 18 19 19 19 19 19 19 18 18 18 18 18 18 18 18 17 17 17 16 16
26 26 25 25 23 21 20 19 18 17 16 16 15 15 15 15 15 15 15 15 16 16 16 15 15 16 17 17 18 18 18 18 18 18 18 18 18 18 18 18 18 18 18 18 17 17 17 16 15
27 24 22 20 19 20 20 18 17 16 16 16 15 15 15 15 15 15 15 15 15 16 16 16 16 16 16 16 16 16 17 17 17 17 17 17 17 17 17 17 17 17 17 17 17 17 17 16 15
24 21 19 20 18 18 18 17 16 16 16 16 16 16 16 16 16 16 16 16 15 15 15 15 15 15 15 15 15 15 15 15 15 15 15 15 16 16 17 17 17 17 17 17 17 17 16 16 15
25 22 20 20 19 18 18 17 16 17 16 17 17 16 16 16 16 16 16 15 15 15 15 15 14 14 14 14 14 14 14 14 14 14 13 14 14 14 15 16 16 16 16 16 16 16 16 16 15
25 22 21 19 20 18 17 16 16 16 16 16 16 16 16 16 16 16 16 16 15 15 15 14 14 14 13 13 13 13 13 13 13 13 13 13 13 13 13 14 14 14 14 14 15 15 15 15 15
24 22 19 19 20 19 18 17 16 15 15 15 15 16 16 16 16 16 16 16 16 15 15 14 14 13 13 13 13 13 12 12 12 12 12 12 12 12 13 13 13 13 13 13 14 14 15 15 15
23 22 20 18 18 19 18 17 16 15 15 15 15 16 16 16 16 16 16 15 15 15 14 14 14 13 13 13 13 12 12 12 12 12 11 11 11 11 12 12 12 12 12 13 13 14 14 14 14
22 21 20 19 19 17 17 16 16 15 15 15 16 16 16 16 16 15 14 14 14 14 14 14 13 13 13 13 12 12 12 12 12 12 11 11 11 11 11 11 11 11 11 12 12 13 13 14 14

GEFSSGP_850_meantemp_018.txt.gz
Temperature
22 21 20 19 19 20 23 24 25 25 26 26 26 26 25 24 23 23 24 24 24 23 21 20 20 20 20 20 21 21 21 21 20 20 20 20 20 20 20 20 20 20 19 19 19 19 19 19 19
22 21 20 20 20 22 24 25 25 26 26 27 27 26 25 24 24 24 24 24 24 23 21 21 20 20 20 20 21 20 20 20 20 20 20 20 20 20 20 20 20 20 19 19 20 19 19 19 19
22 21 21 19 21 23 25 26 25 26 27 27 26 26 25 25 25 24 25 24 23 22 22 21 21 20 20 21 21 21 21 21 20 20 20 20 20 20 20 20 20 19 19 19 19 19 19 19 19
22 22 21 20 23 23 24 25 25 26 27 27 26 25 25 25 25 25 25 24 23 23 22 21 21 20 20 21 21 21 21 21 20 20 20 20 20 20 20 19 19 19 19 19 19 19 19 19 19
22 22 21 21 23 24 24 25 26 26 26 26 26 24 24 25 25 25 25 24 24 23 22 21 21 21 21 21 21 21 21 21 21 20 20 20 20 20 20 20 20 20 20 20 20 20 19 19 19
23 21 21 22 24 25 25 26 26 26 26 26 26 24 24 25 25 25 25 24 24 23 22 21 21 21 21 21 21 21 21 21 21 20 20 20 20 20 20 20 20 20 20 20 20 20 20 19 19
23 20 22 23 24 25 26 26 25 25 25 26 26 24 24 25 24 24 24 24 23 23 22 21 21 21 20 20 20 20 20 20 20 20 20 20 20 20 20 20 19 19 19 19 19 19 19 19 19
24 19 23 22 24 25 26 26 27 26 26 27 27 25 25 26 24 23 23 23 23 22 22 21 21 20 20 20 20 20 20 20 20 20 20 20 20 19 19 19 19 19 19 19 19 19 19 19 19
24 19 21 23 25 26 26 26 27 27 27 27 27 27 26 26 24 23 22 21 21 21 20 20 20 19 19 19 19 19 19 19 19 19 20 19 19 19 19 19 19 19 19 19 19 19 19 19 18
23 19 21 23 25 26 26 26 27 26 26 27 27 27 26 25 24 22 21 20 20 19 19 19 18 18 18 18 18 19 19 19 19 19 19 19 19 19 19 19 19 19 19 18 18 18 18 18 18
22 21 22 24 26 26 26 27 27 26 25 27 27 26 25 24 22 21 20 20 20 19 18 18 18 18 18 18 18 18 19 18 18 19 19 19 19 19 19 19 19 18 18 18 18 18 18 18 18
23 22 24 25 27 26 26 27 26 25 26 26 26 25 24 22 21 20 20 19 19 19 18 18 18 18 18 18 18 18 18 18 18 19 19 19 18 18 18 18 18 18 18 18 18 17 17 17 17
23 23 25 26 26 25 25 25 24 23 23 23 23 22 21 20 20 19 19 19 19 18 18 18 19 19 19 19 19 19 18 18 18 18 18 18 18 18 18 18 18 18 17 17 17 17 17 17 17
24 24 24 25 25 25 23 21 20 19 19 19 19 18 18 18 19 19 19 18 19 19 19 19 19 20 20 20 20 19 19 18 18 18 17 17 17 17 17 17 17 17 17 17 17 17 17 17 17
24 22 22 23 23 24 23 18 18 17 17 16 16 16 16 17 18 18 18 18 18 18 19 19 18 19 19 19 19 18 18 18 18 18 17 17 17 17 17 17 17 17 17 17 17 17 17 17 17
23 22 22 22 21 21 20 17 17 17 16 15 15 15 15 15 16 17 17 18 18 18 18 18 18 18 18 18 17 17 17 17 17 17 17 17 17 17 17 17 17 17 17 17 17 17 17 17 17
21 21 22 22 20 19 17 17 17 16 16 15 14 14 14 15 16 16 17 17 18 18 18 18 17 17 17 17 16 16 16 16 16 16 16 17 17 17 17 17 17 17 16 16 16 16 16 16 16
22 22 23 21 19 18 17 16 17 16 16 15 14 14 14 15 15 16 17 17 17 17 17 17 17 16 16 16 15 15 15 15 16 16 16 17 17 17 17 17 17 16 16 16 16 16 16 16 16
23 23 23 22 19 17 17 16 16 16 15 14 14 14 14 15 15 16 16 17 17 17 16 16 16 16 16 15 15 15 15 15 15 16 16 16 17 17 17 17 17 16 16 16 15 15 15 15 15
22 23 23 21 19 18 17 16 16 16 15 14 13 14 14 15 15 16 16 16 16 16 16 16 16 16 15 15 15 15 15 15 16 16 17 17 17 17 17 17 17 17 16 16 16 16 15 15 15
24 24 24 22 19 17 17 16 16 16 15 14 14 14 14 15 15 15 15 16 16 16 16 16 16 16 16 16 16 16 16 16 16 17 17 17 17 17 17 17 17 17 17 16 16 16 16 16 15
23 24 24 23 20 17 18 16 16 15 15 14 14 14 14 15 15 15 15 16 16 16 16 16 16 16 16 16 16 16 16 16 16 16 17 17 17 17 17 17 17 17 17 17 17 17 16 16 15
24 22 21 21 19 17 17 16 16 15 15 14 14 14 14 14 15 15 15 15 16 16 16 16 16 16 16 15 15 15 15 15 15 15 16 17 17 17 17 17 17 17 16 16 16 17 17 16 16
23 21 20 17 17 18 17 17 17 15 15 15 14 14 14 15 15 15 15 15 15 15 15 15 15 15 15 15 15 15 15 15 14 15 15 15 15 16 16 16 16 16 16 16 16 16 16 16 16
21 20 19 19 17 18 17 17 16 16 16 15 15 15 15 15 15 15 15 15 15 15 15 15 15 15 14 14 14 14 14 14 14 14 14 14 14 14 14 15 15 15 16 16 16 15 15 16 16
21 20 19 19 18 17 17 16 16 16 15 15 15 15 15 15 15 15 15 15 14 14 14 14 14 14 14 14 14 13 13 13 13 13 13 13 13 13 13 13 14 14 14 15 15 15 15 15 15
22 18 18 16 17 17 16 16 16 15 14 15 15 15 15 15 15 15 15 14 14 14 14 14 14 14 13 13 13 13 13 13 13 13 13 13 13 13 13 13 13 13 13 13 14 14 14 14 14
20 18 16 16 17 17 17 16 15 14 14 14 14 15 15 15 15 15 14 14 13 13 13 13 13 13 13 13 13 13 13 13 13 13 12 12 12 12 12 12 12 12 12 12 12 12 13 13 13
19 18 15 14 15 16 17 15 14 13 13 13 14 15 15 14 14 14 14 13 13 13 13 13 13 13 13 13 13 12 12 12 12 12 12 12 12 11 11 11 11 11 11 12 12 12 12 12 12
18 17 16 16 16 14 14 14 13 13 13 14 14 14 14 14 13 13 13 13 12 12 12 12 12 12 12 12 12 12 12 12 12 12 12 12 11 11 11 11 11 11 11 11 11 11 11 11 11

GEFSSGP_850_meantemp_024.txt.gz
Temperature
21 20 19 20 25 30 32 32 32 32 32 31 30 30 31 31 31 29 24 23 22 21 21 22 22 21 21 21 20 20 20 19 19 19 19 19 19 19 19 19 19 19 19 19 18 18 18 18 18
20 19 20 24 30 32 32 32 32 31 31 30 30 30 31 31 28 25 23 22 22 22 21 22 22 21 21 21 21 20 20 20 19 19 19 19 19 19 19 19 19 19 19 19 18 18 18 18 18
19 20 24 29 32 32 31 32 32 31 31 30 31 30 30 29 26 24 23 23 22 21 21 22 21 21 21 21 20 20 20 20 20 20 20 19 19 19 19 19 19 19 19 18 18 18 18 19 19
20 22 26 31 32 32 31 32 32 32 32 31 31 31 29 25 25 24 23 23 22 21 20 21 21 21 20 20 20 20 20 20 20 20 20 20 20 20 20 19 19 19 18 18 18 18 19 19 19
22 27 31 32 33 32 32 32 31 32 32 31 31 31 29 24 24 23 23 23 22 22 21 20 21 20 20 20 20 20 20 20 20 20 20 20 20 20 19 19 19 19 18 18 18 19 19 19 19
26 29 31 32 32 32 33 32 32 32 32 31 31 31 28 23 23 23 23 22 22 22 21 19 20 20 20 20 20 20 20 20 20 20 20 20 20 20 19 19 19 19 19 19 19 19 19 19 19
28 31 31 32 32 32 32 32 32 32 32 31 30 31 28 24 23 23 22 22 22 22 21 19 19 19 19 19 19 20 20 20 20 20 20 20 20 20 19 19 19 19 19 19 19 19 19 19 19
27 31 31 32 31 32 32 32 32 31 31 29 29 31 29 24 23 22 21 21 21 20 20 19 19 18 18 19 19 20 20 20 20 20 20 20 20 20 20 19 19 19 19 19 19 19 19 19 19
27 30 31 31 30 31 32 31 31 31 30 29 28 27 26 23 22 22 21 20 20 20 19 19 19 19 19 18 18 19 19 19 19 19 20 20 19 19 19 19 19 19 19 19 19 19 19 19 18
28 30 31 31 31 31 31 30 30 31 30 28 26 24 23 22 22 22 21 20 20 19 19 20 20 20 19 19 19 19 19 19 19 18 18 19 18 18 18 18 19 19 19 19 19 18 18 18 17
29 30 31 30 30 30 30 29 28 29 28 25 25 24 23 22 22 22 21 21 20 20 20 20 20 20 20 20 20 19 19 19 19 19 19 19 18 18 18 18 18 18 18 18 18 18 17 17 17
29 30 29 29 29 29 29 28 26 24 22 21 22 23 22 22 22 22 21 21 20 20 19 19 19 19 20 19 19 19 19 18 18 18 18 18 18 18 18 18 18 18 18 17 18 18 17 17 17
29 29 29 29 28 27 27 26 24 21 20 20 20 20 21 21 21 20 20 19 19 19 18 18 18 18 18 19 18 18 18 17 17 17 18 18 18 18 18 18 18 17 17 17 17 17 17 17 17
29 29 28 28 27 26 26 24 23 20 19 19 18 18 18 18 18 18 18 17 17 17 17 17 17 18 18 18 18 18 17 17 17 17 17 17 17 17 17 17 17 17 17 17 17 17 17 17 17
28 29 29 28 27 26 27 24 21 19 19 18 17 17 17 16 16 16 16 17 16 16 17 17 17 17 17 17 17 17 17 16 16 16 16 16 17 17 17 17 17 17 17 17 17 17 17 17 17
30 30 29 27 27 26 27 23 20 19 19 18 18 17 16 16 16 16 16 16 16 16 16 16 16 16 17 17 17 16 16 16 16 16 16 16 16 16 16 17 17 17 17 17 17 17 17 17 17
30 30 29 27 27 27 27 22 20 19 19 18 18 17 17 16 16 16 16 16 16 16 16 16 16 16 16 16 16 16 16 16 15 15 15 15 15 15 16 16 16 17 17 17 17 17 17 17 17
29 29 29 27 26 26 24 21 21 20 19 19 18 18 17 17 16 16 16 16 16 16 16 16 16 16 16 16 16 16 15 15 15 15 15 15 15 15 15 16 16 16 16 16 16 16 16 16 16
29 29 28 26 25 25 23 22 21 20 20 19 18 18 18 17 17 16 16 16 16 16 16 16 17 16 16 16 15 15 15 15 15 15 15 15 15 15 15 15 16 16 16 16 16 16 16 16 16
29 29 28 26 25 24 23 22 22 21 20 19 19 19 18 18 17 17 17 17 16 16 16 16 16 16 16 16 15 15 15 15 15 15 15 15 15 15 15 15 15 15 15 16 16 16 16 16 16
29 29 28 26 24 25 24 23 22 22 20 19 19 18 18 18 18 17 17 17 16 16 16 16 15 15 15 15 15 15 15 15 15 15 15 15 15 15 15 16 15 15 15 15 16 15 15 16 16
28 29 28 26 25 25 25 24 23 22 22 21 20 19 18 18 18 17 17 17 16 16 15 15 15 15 15 14 14 14 14 14 14 14 14 14 15 15 15 15 15 15 15 15 15 15 15 15 16
28 28 28 27 27 26 26 25 23 23 22 22 21 19 19 18 18 17 17 16 16 15 15 14 14 14 14 14 14 13 14 14 14 14 14 14 14 14 15 15 15 15 15 15 15 15 15 15 16
28 28 27 28 28 26 26 25 22 23 22 22 21 19 18 18 18 17 17 16 16 15 15 14 13 13 13 13 13 13 13 13 13 13 13 13 14 14 14 14 14 15 15 15 15 15 15 15 15
28 27 27 26 26 25 25 25 22 22 22 21 21 20 19 18 18 17 17 16 15 15 14 14 13 12 12 12 12 12 12 12 12 12 13 13 13 13 13 13 14 14 14 14 14 15 15 15 15
27 28 26 25 25 26 25 23 21 21 20 20 20 19 19 18 18 17 16 16 15 14 14 13 12 12 12 12 11 11 11 12 12 12 12 12 13 13 13 13 13 13 13 13 14 14 14 14 14
27 27 27 26 26 25 24 22 20 20 20 20 20 19 19 18 17 17 16 15 15 14 13 13 12 11 11 11 11 11 11 11 11 11 11 12 12 12 12 12 12 12 12 12 13 13 13 13 13
27 26 27 26 24 24 25 24 22 21 21 21 20 19 19 18 17 16 15 15 14 13 13 12 11 11 10 10 10 10 10 10 10 10 10 10 11 11 11 11 11 11 12 12 12 12 12 12 12
26 26 26 26 25 24 24 24 22 21 21 21 20 19 18 17 16 16 15 14 13 13 12 11 11 10 10 9 9 8 8 8 9 9 9 9 10 10 10 10 10 11 11 11 11 11 11 11 12
25 25 25 25 24 24 24 24 21 21 21 20 19 18 17 16 15 15 14 13 12 12 11 11 10 9 9 8 8 8 8 8 8 8 8 8 8 9 9 10 10 10 11 11 11 11 11 11 11

GEFSSGP_850_meantemp_030.txt.gz
Temperature
23 22 21 22 25 26 29 33 34 34 34 34 34 34 33 32 31 29 28 26 24 24 24 23 23 22 22 22 21 20 20 20 20 20 19 19 19 19 19 19 19 19 19 19 18 18 18 19 19
23 22 22 25 27 28 30 34 34 34 34 34 34 34 33 31 30 28 27 25 23 24 24 23 23 22 22 22 21 20 20 20 20 20 19 19 19 19 19 19 19 19 19 18 18 18 19 19 19
22 23 26 29 31 31 32 34 34 35 34 34 34 33 32 30 29 28 26 25 23 22 23 23 23 23 22 22 21 21 20 20 20 20 20 19 19 19 19 19 19 19 19 19 18 18 19 19 20
23 26 28 30 32 34 34 35 35 35 34 34 34 32 30 29 29 27 26 25 23 22 23 23 23 22 22 22 22 21 21 20 20 20 20 20 19 19 19 19 19 19 19 19 19 19 19 19 20
24 28 31 32 34 35 35 35 35 35 34 34 33 31 29 28 28 27 27 26 24 22 23 23 23 22 22 22 21 21 21 21 20 20 20 20 20 19 19 19 19 19 19 19 19 19 19 19 20
27 31 32 33 34 35 36 35 35 35 34 33 32 30 28 28 28 28 27 26 25 23 23 23 23 22 22 22 21 21 21 21 21 20 20 20 20 20 19 19 19 19 19 18 19 19 19 19 20
28 31 32 33 34 35 35 35 35 35 34 32 31 30 28 28 28 28 27 27 26 23 23 23 23 22 22 21 21 21 21 21 21 21 21 20 20 20 20 19 19 19 19 18 18 19 19 19 20
29 31 32 33 34 35 35 35 34 34 33 31 31 29 27 27 27 27 27 27 26 24 22 22 22 22 22 22 22 21 21 21 21 21 21 21 21 20 20 20 20 19 19 19 19 19 19 19 19
29 30 31 33 34 34 35 34 34 33 31 30 29 29 27 27 27 27 27 26 25 24 23 22 21 21 21 21 21 21 20 20 20 20 20 20 20 20 20 20 20 20 20 19 19 19 19 19 19
30 30 32 34 34 34 34 33 33 33 31 28 28 28 28 27 27 27 26 25 24 24 23 22 22 21 20 20 20 20 20 20 20 19 19 19 20 19 19 19 20 20 20 20 19 19 19 19 19
32 31 33 34 34 33 33 32 31 31 28 27 27 26 27 27 26 25 25 24 24 23 22 22 21 21 21 20 20 19 19 19 19 19 19 18 18 18 19 19 19 19 19 19 19 19 19 19 19
32 32 33 33 33 33 32 32 29 27 25 24 25 25 25 24 23 23 23 22 22 21 21 21 21 21 20 20 20 19 19 19 19 19 18 18 18 18 18 18 18 18 18 18 19 19 19 19 18
32 32 32 32 32 32 31 30 27 24 23 23 23 22 22 22 21 21 21 21 20 20 20 20 20 20 20 20 20 19 19 19 19 19 18 18 18 18 18 18 18 18 18 18 18 18 18 18 18
32 33 32 32 32 31 31 29 27 24 22 21 21 20 20 20 19 19 19 19 19 19 19 19 19 19 19 19 18 18 18 18 18 18 18 18 18 18 18 18 18 18 18 17 17 17 17 17 17
32 32 32 32 31 30 29 27 25 23 22 21 20 19 19 19 19 19 18 18 18 18 18 18 18 18 18 18 18 17 17 17 17 17 17 17 17 17 17 17 17 17 17 17 17 17 17 17 17
32 31 30 30 29 30 30 25 24 23 22 21 20 19 19 19 19 18 18 18 18 18 18 18 18 18 17 17 17 17 17 17 17 17 17 17 17 17 17 16 16 16 16 16 16 16 17 17 17
30 29 27 26 26 27 29 25 24 23 22 21 21 20 19 19 19 18 18 17 17 17 17 17 17 17 17 17 17 17 17 17 17 16 16 16 16 16 16 16 16 16 16 16 16 16 16 16 16
27 25 23 23 26 27 28 25 25 24 23 22 21 20 20 19 19 19 18 18 17 17 17 17 17 17 17 17 17 16 16 16 16 16 16 16 16 15 15 16 16 15 15 15 15 15 15 16 16
28 26 24 24 27 28 27 26 26 25 24 23 21 21 20 20 19 19 19 19 18 17 17 17 16 16 16 16 16 16 16 16 16 16 16 15 15 15 15 15 15 15 15 15 15 15 15 15 15
30 29 27 26 26 27 27 27 26 26 25 23 22 21 21 20 20 20 19 19 19 18 17 17 16 16 15 15 15 15 15 15 16 16 16 15 15 15 14 15 15 15 15 15 15 15 15 15 15
30 28 28 26 26 26 26 25 25 25 24 24 23 22 22 21 21 20 20 19 19 18 18 17 16 15 15 14 14 14 14 15 15 15 15 15 15 14 14 14 15 15 15 15 15 15 15 15 15
27 28 28 28 26 25 24 21 22 22 23 24 23 22 22 21 21 20 20 20 19 18 18 17 16 15 14 14 13 13 13 13 14 14 14 14 14 14 14 14 14 14 14 15 15 15 15 15 15
29 29 28 26 24 22 18 17 18 20 21 23 23 23 22 22 21 21 20 20 19 18 17 17 16 15 14 13 13 12 12 12 12 13 13 13 14 14 14 14 14 14 14 14 14 14 15 15 15
31 29 26 22 21 19 18 18 18 20 22 23 23 23 22 22 22 21 21 20 19 18 17 17 16 15 14 13 12 12 12 12 12 12 12 13 13 14 14 14 14 14 14 14 14 14 14 14 15
30 28 24 20 18 19 20 19 20 23 24 24 24 23 23 22 22 21 21 20 19 18 17 16 15 14 14 13 12 12 11 11 11 12 12 12 12 13 13 13 13 13 13 13 14 14 14 14 14
29 29 26 25 24 23 21 20 22 25 25 24 24 24 23 23 22 22 21 19 19 18 17 16 15 14 13 12 12 11 11 11 11 11 11 11 11 12 12 12 12 12 12 13 13 13 13 14 14
29 29 30 28 28 26 23 22 22 25 25 25 25 24 24 23 22 21 20 19 18 17 16 15 14 13 12 12 11 11 11 10 10 10 10 10 10 11 11 11 12 12 12 12 12 12 13 13 13
30 30 29 27 26 26 26 23 22 24 25 25 25 24 23 22 21 20 19 18 17 16 15 14 14 13 12 11 11 11 10 9 9 9 9 9 9 9 10 10 10 11 11 11 11 12 12 12 13
29 29 28 28 27 26 26 24 25 25 25 25 25 24 23 21 20 19 18 17 16 15 15 14 13 12 12 11 10 10 9 9 9 9 9 9 9 9 9 9 9 10 10 10 11 11 11 12 12
29 28 28 26 26 27 26 25 26 26 25 25 24 23 21 20 19 18 18 16 15 15 14 13 12 12 11 11 10 10 9 9 9 8 8 8 8 8 8 8 8 9 9 9 10 10 11 11 11

GEFSSGP_850_meantemp_036.txt.gz
Temperature
21 21 20 19 19 19 21 25 28 29 29 29 29 28 27 26 25 22 22 23 23 23 22 22 21 21 21 21 20 20 20 20 20 20 20 20 19 20 20 20 19 19 19 19 19 19 19 19 19
22 21 20 19 19 21 24 27 29 29 29 29 29 28 27 25 23 22 22 23 23 23 22 22 21 21 21 21 20 20 20 20 20 20 19 19 19 19 19 19 19 19 19 19 19 19 19 19 19
22 21 20 19 20 22 26 29 29 30 30 29 28 28 27 26 23 23 23 23 23 23 22 22 21 21 21 21 20 20 20 20 20 20 20 20 20 19 19 20 20 19 19 19 19 19 19 19 19
21 20 20 19 22 24 27 29 30 30 29 29 28 26 26 26 25 24 23 23 24 23 22 22 22 21 21 21 21 20 20 20 20 20 20 20 20 20 20 20 20 20 20 20 19 19 20 20 20
21 21 20 20 23 27 29 30 30 29 28 27 27 25 26 25 26 25 24 24 24 23 22 22 22 22 21 21 21 21 21 20 20 20 20 20 20 20 20 20 20 20 20 20 20 20 20 20 20
21 21 21 22 25 28 29 30 29 28 27 27 26 25 25 24 25 24 23 24 24 24 23 22 22 22 22 21 21 21 21 21 20 20 20 20 20 20 20 20 20 20 20 20 20 20 20 20 20
22 21 22 24 25 27 29 29 28 27 27 26 26 24 25 23 23 23 23 23 23 23 23 22 22 22 21 21 21 21 21 20 20 20 20 20 20 20 20 19 19 19 19 19 20 20 20 20 20
24 21 23 23 26 27 28 28 28 27 26 25 26 24 24 23 23 22 22 22 22 22 22 22 21 21 21 20 20 20 20 20 20 20 20 20 20 20 20 19 19 19 19 19 19 19 19 20 20
25 21 21 23 26 27 27 27 26 25 24 24 24 24 24 23 23 22 21 21 21 21 21 20 20 20 20 20 20 19 19 19 19 19 19 19 19 19 19 19 19 19 19 19 19 19 19 19 19
24 20 22 25 27 26 26 26 26 24 23 22 23 23 23 23 22 22 21 20 20 20 19 19 19 19 20 19 19 19 19 19 19 19 19 19 19 19 19 19 18 18 18 18 18 18 18 19 19
24 23 24 26 28 27 25 24 24 23 21 21 21 22 22 22 21 21 20 20 19 19 19 18 19 19 19 19 19 19 19 19 19 19 19 19 19 18 18 18 18 18 18 18 18 18 18 18 18
25 25 27 27 28 27 25 23 21 21 20 20 20 21 21 21 20 19 19 19 19 19 19 18 18 19 19 18 18 18 18 18 18 18 18 18 18 18 18 18 17 17 17 17 17 17 17 17 18
25 25 27 27 26 25 23 22 20 20 19 19 20 20 20 19 19 19 19 19 19 19 18 18 18 18 18 18 18 18 18 18 18 18 18 18 17 17 17 17 17 17 17 17 17 17 17 17 17
26 26 26 25 26 24 22 21 20 19 19 19 19 19 19 19 18 19 19 18 18 18 18 18 18 18 18 18 18 18 18 18 17 17 17 17 17 17 17 17 17 17 17 17 17 16 16 16 16
27 25 24 24 24 23 22 20 19 19 19 19 18 18 18 18 18 18 18 18 18 18 18 18 18 18 18 18 18 18 17 17 17 17 17 17 17 17 17 17 16 16 17 16 16 16 16 16 16
25 23 22 23 23 23 22 19 19 19 19 18 18 18 18 18 18 18 18 18 18 18 18 18 18 18 18 18 17 17 17 17 17 16 16 16 16 16 16 16 16 16 16 16 16 16 16 16 15
23 22 23 23 22 22 20 19 19 18 18 18 18 17 18 17 17 18 18 18 18 18 18 18 18 18 17 17 17 17 16 16 16 16 16 15 15 15 15 16 15 15 15 15 15 15 15 15 15
22 22 23 22 22 21 19 18 18 18 18 18 18 18 18 18 18 18 18 18 18 18 18 18 18 17 17 17 16 16 16 15 15 15 15 15 15 15 15 15 15 15 15 15 15 15 15 15 15
23 23 22 22 21 20 19 18 17 17 17 17 18 18 18 18 18 18 18 18 18 18 18 17 17 17 17 16 16 15 15 15 14 14 14 14 14 14 14 14 14 14 14 14 14 14 14 14 14
24 23 21 21 21 20 18 17 17 17 16 17 17 18 18 18 18 18 18 18 18 18 18 17 17 17 16 16 15 15 14 14 14 14 13 13 13 13 13 14 14 14 14 14 14 14 14 14 14
23 22 21 20 19 19 18 17 16 17 16 17 18 18 19 19 19 19 19 18 18 18 18 18 17 17 16 15 15 14 14 13 13 13 13 13 13 13 13 13 13 14 14 14 14 14 14 14 14
22 23 23 21 18 16 17 16 16 16 16 17 18 18 19 19 19 19 19 19 19 18 18 17 17 16 16 15 14 14 13 12 12 12 12 12 12 13 13 13 13 13 13 13 13 13 13 13 13
23 24 23 20 17 16 16 16 16 16 16 17 18 19 19 20 20 20 19 19 19 18 18 17 16 16 15 14 14 13 12 12 11 11 11 12 12 12 12 12 12 12 13 13 13 13 13 13 13
23 22 20 17 16 16 16 17 17 16 16 17 18 19 20 20 20 20 19 19 18 18 17 17 16 15 15 14 13 12 12 11 11 11 11 11 11 12 12 12 12 12 12 12 12 12 13 13 13
23 20 19 19 17 17 16 17 17 17 18 18 18 19 20 20 20 20 19 19 18 18 17 16 15 15 14 13 13 12 11 11 11 10 10 10 10 10 11 11 11 11 11 11 12 12 12 12 13
24 21 20 20 18 16 16 17 17 18 19 19 19 20 20 20 20 19 19 18 18 17 16 16 15 14 13 13 12 11 11 11 10 10 10 10 10 10 10 10 10 10 11 11 11 11 11 12 12
25 22 21 18 17 16 17 17 18 19 20 20 20 20 20 20 19 19 19 18 17 17 16 15 14 13 13 12 12 11 11 10 10 10 10 9 9 9 9 9 10 10 10 10 10 11 11 11 11
24 22 19 18 18 18 18 18 17 19 19 19 19 19 19 19 19 19 18 18 17 16 15 15 14 13 12 12 11 11 11 10 10 9 9 9 9 9 9 9 9 9 9 10 10 10 10 10 11
24 23 19 17 17 17 18 18 19 19 18 18 18 20 20 19 19 19 18 18 17 16 15 14 13 13 12 12 11 11 10 10 10 9 9 9 9 9 8 8 9 9 9 9 9 9 9 10 10
24 23 20 19 20 17 17 18 20 18 18 19 19 20 20 19 19 19 18 17 16 15 14 14 13 12 12 12 11 11 10 10 10 9 9 9 8 8 8 8 8 8 8 9 9 9 9 9 9

GEFSSGP_850_meantemp_042.txt.gz
Temperature
20 20 19 19 18 18 19 21 23 25 25 26 26 25 23 22 22 22 22 22 21 21 20 20 20 20 20 20 20 20 20 20 20 20 20 20 20 20 19 19 19 19 19 19 19 19 19 19 19
20 20 19 19 18 20 22 24 25 26 26 26 26 24 22 21 21 22 22 21 21 21 20 20 20 20 20 20 20 20 20 20 20 20 20 20 20 19 19 19 19 19 19 19 19 19 19 19 19
20 19 19 17 18 20 23 25 26 27 27 26 25 24 23 22 22 23 23 22 21 21 20 20 20 20 20 20 20 20 20 19 19 19 19 19 19 19 19 19 19 19 19 19 19 19 19 19 19
20 19 19 17 19 20 22 24 25 26 26 26 25 23 22 21 22 23 22 22 21 21 20 20 20 20 20 20 20 20 19 19 19 19 19 19 19 19 19 19 19 18 18 18 18 18 18 18 18
19 19 18 18 19 21 23 25 26 25 25 25 24 22 20 21 22 23 22 22 21 20 20 20 20 20 19 19 19 19 19 19 19 19 19 19 19 19 19 19 19 18 18 18 18 18 18 18 18
19 18 18 19 21 24 24 25 25 24 24 24 23 21 20 20 21 22 22 21 21 21 20 20 20 19 19 19 19 19 19 19 19 19 19 19 19 19 18 18 18 18 18 18 18 18 18 18 18
20 17 19 21 22 23 25 25 24 23 23 23 23 20 19 19 20 21 21 21 20 20 20 20 20 20 19 19 19 19 19 19 19 19 19 19 19 19 18 18 18 18 18 18 18 18 18 18 18
21 17 20 20 22 24 24 25 24 23 22 22 22 20 19 19 20 21 21 20 20 20 20 20 20 20 20 20 19 19 19 19 19 19 19 19 19 19 19 18 18 18 18 18 18 18 18 18 18
21 18 19 21 23 24 24 23 23 22 21 20 20 20 20 20 20 21 20 20 20 20 20 20 20 20 19 19 19 19 19 19 19 19 19 19 19 18 18 18 18 18 18 18 18 18 18 18 18
21 18 20 22 23 23 23 22 22 21 20 19 19 19 20 20 20 20 20 20 20 19 19 19 19 19 19 19 19 18 18 18 18 18 18 18 18 18 18 18 18 18 18 17 17 18 18 18 18
20 19 21 22 24 23 22 20 20 20 19 19 19 19 19 19 19 19 19 20 19 19 19 19 19 19 19 18 18 18 18 18 18 18 18 18 18 18 17 17 17 17 17 17 17 17 17 17 17
20 21 22 22 23 22 21 19 18 18 18 18 19 19 18 19 18 19 19 19 19 18 19 19 19 19 19 18 18 18 18 18 18 18 17 17 17 17 17 17 17 17 17 17 17 17 17 17 17
22 22 22 21 21 20 19 18 18 17 17 18 18 18 18 18 18 18 18 18 18 18 18 18 18 18 18 18 18 17 17 17 17 17 17 17 17 17 16 16 16 16 16 16 16 16 17 17 17
23 22 21 21 20 19 18 18 18 17 17 18 18 18 18 18 18 18 18 18 18 18 18 18 18 18 18 17 17 17 17 17 17 16 16 16 16 16 16 16 16 16 16 16 16 16 16 16 16
23 21 21 20 20 19 19 18 17 17 17 17 17 17 18 18 18 17 17 18 18 18 18 18 18 18 18 17 17 17 17 17 16 16 16 16 16 16 15 15 15 15 15 16 16 16 16 16 16
22 21 20 21 20 20 19 18 17 17 17 17 17 17 17 17 17 17 17 18 18 18 18 18 18 18 18 17 17 17 17 16 16 16 15 15 15 15 15 15 15 15 15 15 15 15 15 15 15
20 20 21 20 20 19 18 17 17 17 17 16 16 16 17 17 17 17 17 18 18 18 18 18 18 17 17 17 17 16 16 16 15 15 15 15 14 14 14 14 14 14 14 14 14 15 15 15 15
21 21 21 20 19 18 17 16 16 16 17 16 16 16 17 17 18 18 18 18 18 18 18 18 17 17 17 16 16 16 15 15 15 14 14 14 14 14 14 14 14 14 14 14 14 14 14 14 14
21 21 20 20 19 18 17 17 16 16 16 16 16 16 17 17 18 17 18 17 17 17 17 17 17 17 16 16 15 15 15 14 14 13 13 13 13 13 13 13 13 13 13 13 13 13 14 14 14
21 21 20 19 19 18 17 17 17 16 16 16 16 17 17 17 17 18 18 18 18 17 17 17 17 16 16 15 15 14 14 13 13 13 12 12 12 12 12 13 13 13 13 13 13 13 13 13 13
21 21 20 19 18 17 18 18 17 17 16 17 17 17 18 18 18 18 18 18 18 17 17 17 16 16 15 15 14 14 13 13 12 12 12 12 12 12 12 12 12 12 12 13 13 13 13 13 13
21 21 20 19 18 16 17 17 17 16 16 17 17 17 18 18 19 19 18 18 18 18 17 17 16 16 15 15 14 13 13 12 12 11 11 11 11 11 11 11 11 12 12 12 12 12 12 12 12
20 20 19 18 16 16 16 16 16 16 17 17 17 18 18 19 19 19 19 19 18 18 17 17 16 16 15 14 13 13 12 12 11 11 11 11 11 11 11 11 11 11 11 11 12 12 12 12 12
20 18 17 15 15 17 16 16 16 16 17 17 17 19 19 19 19 19 19 19 18 18 17 17 16 16 15 14 13 12 12 11 11 11 11 11 11 11 10 10 10 10 11 11 11 11 11 11 12
19 18 17 17 16 16 16 15 15 17 17 17 18 19 20 20 19 19 19 19 18 18 18 17 16 15 14 13 13 12 12 11 11 11 10 10 10 10 10 10 10 10 10 10 10 11 11 11 11
19 19 18 19 17 16 16 16 16 18 18 19 19 19 20 19 19 19 19 19 18 18 17 16 16 15 14 13 12 12 11 11 11 11 10 10 10 10 10 9 9 9 9 9 9 10 10 10 10
20 18 17 15 16 16 16 16 17 18 18 18 19 19 19 20 20 20 19 19 18 18 17 16 15 14 13 13 12 12 11 11 11 11 10 10 10 10 9 9 9 9 9 9 9 9 9 9 10
20 16 15 16 17 18 18 17 17 19 19 18 18 19 20 20 20 20 19 19 18 17 16 15 15 14 13 13 12 12 11 11 11 11 10 10 10 10 9 9 9 9 9 9 8 8 8 9 9
21 18 15 14 15 16 17 17 17 17 18 17 18 20 20 20 20 20 19 18 18 17 16 15 14 14 13 12 12 12 11 11 11 10 10 10 10 9 9 9 9 9 9 9 8 8 8 8 8
22 21 16 18 17 15 16 17 18 17 17 18 19 20 20 20 20 19 19 18 17 17 16 15 14 13 13 12 12 12 11 11 11 10 10 10 9 9 9 9 9 9 9 8 8 8 8 8 8